Theta_e
329 329 331 334 336 336 337 338 338 339 340 340 340 340 341 340 341 340 344 345 343 341 341 338 335 339 341 340 343 344 341 343 345 348 348 349 347 345 339 338 337 337 336 338 340 338 337 338 340 341 340 339 338 337 338 338 338 336 334 334 332 332 332 334 335 335 331 329 328 330 329 333 336 336 335 336 336 336 339 336 338 335 335 335 335
325 325 326 328 329 332 334 334 335 334 335 338 338 339 340 340 340 340 342 343 344 343 343 342 340 340 337 338 340 343 340 340 341 342 341 343 348 349 348 344 341 340 339 341 341 340 339 339 340 339 340 338 338 338 339 338 338 336 336 334 335 331 331 334 333 331 325 325 324 324 324 328 331 331 333 335 337 338 336 335 335 334 333 334 336
321 321 322 323 324 325 327 328 328 330 331 332 335 337 339 339 339 340 341 341 342 342 341 339 340 342 340 340 341 340 342 341 340 341 342 341 345 348 347 346 345 343 344 343 342 342 341 340 340 341 340 339 337 337 338 336 336 336 335 333 332 333 333 335 332 331 326 327 329 323 320 320 323 326 331 331 333 333 338 335 334 333 334 336 336
317 317 318 319 321 322 323 324 325 326 327 328 329 331 333 335 338 339 339 341 342 341 341 340 342 344 344 342 343 342 340 341 342 343 343 343 343 345 346 347 344 344 343 343 342 341 341 340 340 340 340 340 339 337 336 335 336 335 334 333 332 329 330 330 333 332 331 327 320 319 319 319 316 320 324 328 331 333 335 333 333 332 335 335 335
316 316 316 317 318 319 320 321 323 323 324 325 327 328 330 332 334 336 339 341 341 341 342 342 341 342 342 342 343 342 341 340 340 339 341 339 339 341 344 346 344 343 343 342 341 341 341 341 340 340 340 340 338 336 336 336 336 335 335 333 332 329 327 329 331 333 331 332 326 320 318 317 315 320 323 324 329 329 332 335 334 334 333 333 335
316 315 315 316 316 317 319 319 320 321 323 325 327 328 329 329 331 333 336 337 338 339 340 341 340 339 339 336 335 332 332 337 337 337 338 339 336 340 342 344 343 342 343 341 339 340 340 341 341 339 338 339 339 337 337 337 336 335 335 334 332 332 330 328 327 331 332 330 331 329 330 319 318 321 322 316 327 331 331 333 332 332 332 333 333
315 315 315 315 316 316 317 318 319 320 322 325 326 326 327 329 330 331 331 332 334 335 336 337 337 339 337 334 334 335 332 335 340 339 338 339 341 340 340 343 343 342 341 340 341 340 341 341 340 340 338 338 339 338 336 334 336 336 336 334 333 332 331 327 327 327 329 327 329 331 331 330 332 324 319 320 315 323 328 328 330 331 332 332 332
313 313 314 315 315 316 316 317 319 319 322 324 325 326 326 327 328 329 329 330 332 332 333 335 334 335 337 335 336 334 335 334 336 335 337 337 339 340 340 341 342 341 341 341 341 341 340 339 339 339 339 338 338 337 337 336 335 335 336 335 335 334 331 328 327 328 325 324 328 327 328 329 330 329 325 322 320 316 320 327 329 330 330 330 331
313 313 314 314 315 316 317 317 319 320 321 322 323 325 326 326 327 328 327 329 329 330 331 332 333 334 335 337 335 333 334 335 335 334 332 336 337 337 339 339 339 341 341 341 340 340 339 339 338 338 339 338 337 337 338 335 334 332 333 334 333 333 332 331 329 327 328 326 327 326 327 325 326 327 328 326 320 318 319 320 322 327 329 330 332
313 314 314 315 316 316 318 319 319 319 322 322 323 324 324 325 325 326 325 326 327 328 329 330 331 332 332 333 334 335 335 336 336 334 333 333 335 337 338 338 338 339 340 340 340 340 340 340 339 338 338 338 337 335 336 336 334 333 332 333 334 332 333 331 329 329 329 329 328 327 324 323 324 325 325 324 324 323 319 320 322 321 319 324 330
312 313 314 315 316 317 318 317 318 319 322 321 321 321 322 323 323 323 324 325 326 327 327 327 329 329 329 329 330 331 333 334 334 333 332 332 333 334 336 337 338 337 337 339 342 340 340 339 340 339 337 339 337 336 336 335 334 335 334 334 334 333 332 331 330 329 330 329 329 328 326 324 323 321 322 323 323 321 321 321 322 324 322 322 326
312 313 313 314 314 315 316 316 316 317 318 319 319 320 320 321 321 321 322 323 324 325 326 327 327 327 327 328 328 329 331 331 331 332 334 332 334 334 335 336 335 336 336 336 338 339 339 340 340 339 338 335 336 335 335 335 334 335 334 334 333 333 333 331 329 328 329 328 328 328 328 329 327 325 325 326 324 324 322 321 321 324 325 325 328
311 312 312 313 313 313 314 314 315 316 316 317 317 319 319 319 319 319 319 321 322 324 324 324 325 326 326 326 327 328 328 328 328 330 332 332 333 333 333 334 334 334 335 335 337 342 341 339 338 338 335 337 335 334 335 335 333 334 333 334 333 331 332 331 329 329 329 327 327 329 328 328 328 329 330 328 328 327 325 322 323 324 320 321 327
311 311 312 312 312 312 313 313 314 314 315 316 316 317 317 317 318 317 318 321 321 321 322 322 323 324 325 326 327 326 326 326 327 327 329 331 332 332 332 332 333 334 334 335 338 337 338 335 335 337 337 335 334 333 335 334 334 334 334 333 332 331 331 331 331 331 330 329 330 328 327 327 327 329 330 329 326 326 323 322 321 321 322 321 325
310 310 311 311 312 312 313 313 313 314 314 315 315 316 317 316 317 317 317 319 320 320 321 320 321 322 323 325 325 325 325 326 326 327 327 327 329 331 333 333 333 333 334 336 337 337 337 337 336 334 334 334 333 333 334 334 333 332 332 333 333 333 332 331 331 331 330 330 330 328 328 328 329 330 330 328 330 328 325 324 322 318 318 319 319
309 309 310 310 311 312 313 313 313 314 314 315 315 316 317 316 318 318 317 318 318 319 319 320 320 321 322 322 322 323 324 325 326 326 326 327 327 328 331 333 334 334 335 335 336 336 335 334 336 335 334 334 334 333 334 333 332 332 334 331 331 333 331 331 330 331 330 331 330 329 329 329 331 331 330 330 331 329 328 327 325 322 317 314 317
308 308 308 309 310 312 312 312 313 314 314 316 316 316 317 317 318 318 317 317 318 319 319 320 319 319 319 319 320 321 321 322 322 323 324 325 326 328 329 331 334 335 334 335 335 336 335 335 334 335 334 333 331 330 331 331 332 331 331 331 330 331 331 330 330 329 331 331 331 330 330 330 331 332 330 331 331 330 329 329 328 325 323 317 315
308 309 309 310 310 311 311 312 312 313 314 315 315 317 318 319 317 316 316 316 317 318 319 319 318 318 317 318 318 319 320 321 321 321 321 322 324 326 327 328 330 333 333 334 334 334 334 335 334 333 332 332 333 333 332 330 330 331 331 330 331 332 331 331 330 330 331 332 332 331 330 330 331 332 331 332 331 329 328 329 328 327 326 321 319
307 308 308 309 309 310 310 312 312 313 315 315 315 316 316 318 318 317 315 316 317 319 320 319 319 318 318 317 317 317 318 319 320 320 321 320 321 321 322 324 327 329 330 332 332 332 333 333 333 333 332 332 332 332 332 330 329 329 329 330 331 331 329 328 328 329 330 330 330 330 330 330 331 331 331 332 331 329 330 330 328 328 326 325 323
306 307 308 309 309 310 310 311 311 312 312 314 315 315 315 316 316 315 316 316 317 318 318 318 319 318 318 317 317 316 317 317 318 318 318 317 318 319 320 322 324 326 328 330 331 331 331 331 331 331 330 331 330 331 330 328 329 329 328 328 330 330 329 328 329 330 328 328 328 329 330 331 331 331 331 331 331 330 329 328 329 329 329 328 324
306 306 307 308 309 309 310 311 311 313 313 314 314 313 314 315 315 315 314 314 316 317 317 318 318 317 317 316 316 317 316 317 317 317 317 316 317 317 318 320 322 323 325 327 330 330 330 330 330 329 329 329 329 328 330 330 329 329 329 329 329 327 327 327 328 328 329 328 328 329 330 331 331 330 330 330 329 331 330 330 330 329 328 327 323
306 307 307 308 308 309 310 311 312 311 312 312 312 312 312 313 313 313 314 313 314 314 315 316 317 317 316 316 316 316 316 316 316 316 316 315 315 315 317 318 319 321 323 326 329 329 329 329 328 327 328 328 328 329 330 330 329 328 327 328 327 327 329 327 328 327 328 328 328 329 329 330 331 331 330 329 330 329 329 329 329 328 326 326 327
306 306 307 308 308 308 309 309 309 309 310 310 311 311 311 312 313 313 313 313 314 314 315 315 316 315 315 316 315 315 315 315 314 315 314 314 314 314 313 315 316 318 321 322 324 324 325 325 325 326 327 327 327 328 329 329 328 328 327 328 327 326 327 326 326 327 328 327 326 327 328 330 331 329 330 330 330 329 329 329 328 328 326 326 327
306 306 307 307 307 307 307 307 307 308 308 308 309 309 310 310 311 312 312 313 314 314 314 314 314 314 315 315 314 314 315 314 313 313 313 313 313 312 312 312 314 315 317 319 319 318 319 321 322 325 326 327 327 328 327 328 328 327 326 327 328 327 326 326 326 327 327 327 327 328 329 328 329 329 329 328 329 329 329 328 328 326 326 326 326
305 305 305 305 305 305 305 306 306 306 306 308 307 308 308 309 310 311 312 313 313 313 313 313 313 313 313 313 313 313 313 313 312 312 313 313 312 311 310 310 311 312 313 314 315 317 317 317 318 323 326 327 327 327 326 327 328 329 328 327 327 327 327 327 327 328 327 326 327 326 328 329 329 328 329 328 329 329 330 326 325 326 326 327 327
304 304 304 304 304 304 305 306 306 306 306 306 307 307 308 308 309 311 311 312 312 312 312 312 312 311 311 312 312 312 312 312 312 312 312 312 311 310 309 309 310 309 311 312 312 313 315 314 316 319 327 327 327 326 323 325 327 327 327 327 326 325 325 326 327 328 328 328 329 327 327 326 326 328 329 329 329 329 329 328 327 326 326 325 325
303 304 304 304 304 304 305 305 305 306 306 306 306 306 306 307 308 309 310 311 311 311 311 311 311 311 310 310 311 311 311 311 311 311 311 311 310 310 309 308 308 308 309 309 309 310 312 313 313 317 312 309 307 305 305 305 312 322 326 326 325 326 328 328 327 327 328 329 328 329 327 328 328 329 328 329 329 328 328 325 326 324 326 324 324
303 303 303 303 304 304 304 305 305 306 306 306 306 307 306 306 306 308 309 310 311 311 310 309 309 309 309 309 310 310 310 310 311 310 310 310 310 309 309 308 308 306 307 307 307 308 309 310 310 312 310 307 304 302 301 300 302 306 314 321 324 325 325 325 326 326 327 327 327 328 328 328 328 329 329 329 329 327 328 326 328 327 324 324 325
301 302 302 303 303 303 304 304 305 306 306 306 305 306 306 306 306 306 308 309 310 309 308 308 308 307 308 308 309 309 310 309 309 309 309 309 308 309 309 308 307 306 306 306 306 307 306 306 307 309 310 305 301 300 299 298 297 299 306 313 318 322 325 326 326 326 326 327 327 327 328 328 329 329 323 324 325 326 328 326 326 327 325 324 324
300 301 302 302 302 303 303 304 304 304 304 305 305 304 305 305 305 306 307 308 309 308 307 307 306 306 307 307 308 308 308 308 308 308 308 308 307 308 307 307 307 306 305 305 304 305 305 305 305 305 307 305 301 299 298 295 295 296 299 304 310 316 320 325 325 325 326 328 328 327 328 329 324 322 317 314 310 314 320 325 327 327 325 324 323
301 301 301 302 302 302 302 302 303 304 304 304 305 305 306 305 305 306 306 307 307 307 306 306 305 306 306 307 307 307 307 307 307 307 307 306 307 307 306 306 307 306 305 305 304 303 303 303 304 303 303 305 301 298 294 292 292 293 296 299 304 311 319 323 325 325 324 325 326 327 327 326 323 322 320 304 305 308 311 312 315 319 323 326 324
300 300 301 301 301 301 301 301 302 303 304 304 305 305 305 304 305 305 307 307 307 306 305 305 305 306 306 305 306 306 306 306 306 305 306 306 306 306 306 306 306 306 306 306 304 303 302 302 303 302 302 302 300 296 292 292 292 292 294 296 301 309 316 320 325 326 326 325 326 326 327 327 326 326 323 312 308 304 305 306 307 307 310 313 315
300 300 300 300 300 300 301 302 303 303 303 304 305 304 304 305 305 305 306 306 305 305 304 304 304 305 305 305 305 305 305 305 305 305 305 305 305 305 305 305 305 306 306 305 304 303 302 302 302 301 300 301 300 295 292 292 292 291 292 294 299 306 313 318 322 326 327 326 325 324 325 327 326 323 324 321 317 311 303 302 304 306 307 305 304
300 300 300 300 300 300 301 302 303 303 304 305 306 305 305 306 305 305 305 304 304 304 304 303 303 304 304 304 304 304 304 304 304 304 304 304 304 304 304 305 305 305 305 304 304 304 303 302 301 300 300 300 299 294 292 292 291 291 291 293 303 309 314 317 321 324 326 325 324 323 323 324 327 327 326 326 320 318 315 315 317 321 321 313 304
299 299 299 300 300 301 302 303 303 304 305 305 304 305 305 305 305 304 304 303 303 302 303 303 303 303 303 303 303 303 303 304 304 304 304 303 303 304 304 304 304 303 303 303 303 303 303 303 302 301 300 299 298 293 292 292 291 291 291 295 304 308 313 317 320 323 325 322 322 325 324 322 324 326 326 320 323 321 320 320 321 322 322 321 321
300 299 300 300 300 301 302 302 304 304 303 304 304 305 304 304 304 304 303 303 302 302 302 303 302 302 303 303 303 303 303 303 303 303 303 303 303 303 303 303 303 303 303 303 303 304 303 302 302 301 299 298 298 293 292 292 292 291 292 299 303 308 312 314 316 319 323 320 314 314 321 323 323 322 316 304 312 324 323 322 321 322 321 312 303
301 302 300 301 301 301 303 303 303 304 303 303 305 305 304 303 302 303 302 302 302 301 301 302 302 302 302 302 302 302 302 302 302 301 301 302 302 302 303 304 302 302 301 301 301 301 302 302 302 301 299 298 298 295 293 292 292 291 293 298 303 308 311 312 311 313 320 310 307 305 306 312 321 323 312 302 305 310 324 323 322 320 316 311 307
301 301 301 302 302 302 303 303 302 303 303 303 304 304 303 302 302 302 301 301 301 300 301 301 301 302 302 302 302 302 301 301 301 300 300 301 302 302 302 304 302 301 300 301 301 301 301 301 301 300 300 298 298 297 293 293 292 292 293 297 301 303 305 309 309 309 315 310 306 303 303 298 301 308 301 300 300 311 321 321 321 316 314 310 308
300 299 299 300 301 301 302 302 302 301 303 304 304 303 302 301 301 301 301 300 300 300 301 301 301 302 302 302 302 302 302 301 300 301 301 300 300 301 302 302 302 302 301 301 301 300 300 300 300 299 300 299 297 297 294 292 292 292 293 296 296 298 300 304 305 305 306 303 301 302 299 294 294 294 290 295 298 311 322 320 321 316 313 311 308
300 300 301 301 301 300 300 300 300 301 303 303 302 302 301 300 300 300 300 299 300 301 301 301 301 302 302 302 302 302 302 301 300 301 301 300 300 300 300 300 301 301 301 301 300 300 299 299 299 299 298 298 297 296 296 293 293 292 292 294 295 294 295 299 299 299 299 298 297 297 297 292 290 290 291 290 291 293 318 322 321 318 314 310 310
298 299 300 299 300 299 299 300 301 301 302 302 302 301 300 300 300 300 299 300 301 301 301 301 301 301 301 302 302 302 302 301 301 301 301 301 300 299 299 299 299 300 300 300 299 299 299 298 299 299 298 297 297 296 296 293 293 293 292 293 294 293 294 296 296 295 296 294 294 295 295 293 290 290 291 291 292 292 295 316 320 319 317 310 307
299 300 299 300 300 300 300 300 301 301 301 301 301 300 300 300 299 299 300 301 301 301 301 301 300 300 301 301 302 303 303 302 301 301 300 300 300 299 298 298 298 298 298 298 298 298 298 298 298 299 298 297 298 297 295 294 293 293 292 292 293 294 293 295 293 293 293 293 293 293 294 292 290 290 290 291 291 292 293 307 311 299 298 300 311
298 299 299 299 299 299 299 300 301 302 302 301 301 300 299 300 299 300 301 301 302 301 301 301 301 300 301 301 302 303 302 303 302 301 300 300 300 299 298 298 297 297 297 296 296 297 297 297 297 297 298 297 297 297 295 294 293 292 292 292 291 292 292 296 293 292 292 292 293 293 294 292 291 291 290 291 291 292 294 292 292 296 297 298 304
298 299 299 299 298 299 299 300 300 300 301 301 301 299 299 299 299 301 302 302 301 301 301 300 301 300 301 300 300 302 302 302 301 301 300 299 299 299 298 298 297 296 295 295 295 295 296 297 296 296 297 297 297 297 295 293 294 292 292 292 291 291 291 294 295 294 293 293 292 292 292 290 291 291 291 291 291 291 292 291 292 292 296 300 309
297 298 299 299 298 298 298 298 298 299 300 300 300 300 300 299 301 302 300 300 301 301 300 300 299 299 300 300 300 301 302 302 302 301 299 298 298 299 297 297 297 296 295 294 294 294 294 296 296 295 296 296 297 297 296 295 293 293 293 292 292 291 291 291 294 295 294 293 291 290 290 290 290 291 291 292 292 291 291 291 292 293 297 299 301
298 298 298 297 298 298 297 297 297 298 299 300 300 300 300 301 301 302 301 301 300 301 300 299 299 300 299 299 299 299 300 302 302 301 300 299 298 298 297 296 296 295 295 294 294 293 293 294 295 293 294 295 296 296 296 295 294 294 294 293 292 292 292 292 293 294 292 291 291 291 290 291 291 291 293 292 292 292 291 291 292 294 296 296 297
297 298 298 297 297 296 296 297 297 298 298 299 300 300 301 302 301 301 301 301 300 300 300 300 300 299 300 299 299 299 299 300 302 301 300 300 299 299 298 296 295 295 294 294 293 293 292 292 293 293 293 293 293 294 294 293 292 293 294 295 295 294 294 293 293 294 293 294 292 292 291 290 291 290 291 291 291 291 292 293 293 293 293 294 294
298 298 297 297 297 296 297 297 297 298 298 298 299 300 301 301 301 301 301 301 301 300 299 299 298 299 299 299 299 294 297 298 300 301 300 299 299 299 298 295 294 294 293 293 293 292 292 292 292 292 292 291 291 292 292 290 290 290 291 293 294 294 293 293 292 292 293 293 292 291 291 291 291 291 291 291 291 291 290 290 291 292 292 292 293
298 298 298 297 297 297 297 297 297 299 300 299 299 300 301 303 301 301 302 300 300 299 300 299 299 298 298 299 299 299 298 298 299 301 300 299 297 299 298 296 296 294 293 294 293 292 293 293 293 292 291 290 290 291 291 289 288 288 288 290 292 292 293 293 292 290 293 291 290 289 288 288 288 287 287 288 288 289 288 289 289 290 291 291 291
297 298 298 298 298 298 298 297 299 300 300 299 300 300 301 301 301 301 301 301 301 300 300 299 299 298 298 299 300 298 299 298 298 298 299 295 289 289 292 298 295 289 286 287 289 292 292 293 293 293 294 291 290 292 289 288 288 288 289 288 288 288 289 291 290 290 291 289 288 287 287 286 286 286 286 286 286 286 286 286 287 287 288 289 289
297 297 297 297 298 298 298 298 299 300 299 299 300 301 302 301 301 301 301 301 300 299 298 298 298 298 298 299 299 299 299 298 298 298 298 297 296 294 289 289 290 291 290 288 288 289 288 288 292 292 293 291 290 289 288 288 288 288 288 288 288 288 289 289 289 290 289 288 287 287 286 286 286 286 285 285 286 286 285 286 286 286 287 286 287
Wind_Speed
10 13 14 13 11 10 9 7 7 8 7 5 5 5 4 4 5 4 3 3 2 2 4 2 2 3 3 2 2 2 3 2 2 2 1 2 3 6 10 9 7 6 7 6 7 7 7 7 7 7 6 6 6 6 6 6 5 6 6 6 7 6 5 4 2 2 3 1 1 1 1 3 3 3 4 2 3 1 1 4 4 3 2 4 1
13 13 13 13 11 11 9 9 10 11 10 10 9 9 8 7 6 5 5 4 4 3 2 2 2 1 2 3 3 2 2 1 2 2 3 5 3 2 2 7 10 12 11 10 7 8 8 8 8 7 7 6 6 6 6 6 6 5 5 5 5 7 6 6 5 5 2 5 4 2 2 2 3 2 2 3 2 2 2 3 3 2 3 4 2
11 11 11 11 12 13 10 10 10 10 10 10 9 9 8 8 7 6 5 5 4 4 2 1 2 2 1 2 2 3 1 2 3 3 3 4 5 3 4 4 4 5 6 6 6 6 6 6 6 5 6 6 6 8 7 8 7 7 7 7 5 5 5 4 7 7 6 5 2 3 3 4 4 4 3 4 3 2 2 2 3 2 3 3 3
11 10 10 11 11 11 11 10 9 9 10 10 10 10 7 7 6 5 5 5 4 3 4 3 4 3 2 2 3 3 3 3 4 3 4 4 5 5 3 3 4 4 5 5 6 6 6 6 6 6 6 7 7 7 8 8 8 8 7 8 6 6 6 6 7 8 4 8 5 6 4 5 3 8 6 4 4 4 4 3 3 4 4 3 2
9 10 11 11 12 12 11 10 8 9 8 9 8 8 6 9 8 7 4 4 4 5 4 3 6 4 3 3 2 3 2 3 3 4 3 3 4 4 3 3 4 4 4 4 4 5 6 6 6 6 6 7 6 8 7 8 9 8 9 9 9 8 8 6 6 7 7 5 5 4 1 2 5 2 6 2 5 4 4 4 4 4 4 4 3
10 10 11 11 10 10 10 10 10 8 8 7 6 7 8 8 9 9 7 8 6 7 7 5 4 4 4 4 4 4 4 3 2 2 2 1 2 3 6 3 4 4 3 5 6 5 6 6 5 7 7 7 7 7 7 7 8 8 9 9 9 9 8 7 6 5 7 6 5 3 1 2 4 3 5 3 1 1 2 4 4 3 3 4 4
9 11 11 11 10 10 10 9 9 9 8 7 7 8 9 8 8 9 8 7 8 8 9 6 6 4 4 4 6 6 6 5 3 4 5 5 3 3 4 5 5 5 6 5 4 5 5 5 5 6 7 6 6 7 7 8 7 8 7 9 9 9 9 9 9 7 5 5 5 6 3 0 0 2 4 4 1 1 3 2 2 3 3 3 5
9 10 10 10 9 9 9 8 7 7 6 6 5 6 8 8 8 8 6 7 7 8 8 7 5 6 5 4 4 6 5 7 6 5 6 7 7 5 4 5 5 4 4 4 5 5 5 6 5 5 6 7 5 6 8 6 5 6 8 9 8 7 9 9 8 7 8 7 9 9 5 0 2 4 2 4 4 4 4 2 2 4 4 4 5
10 9 9 9 9 8 7 7 7 7 7 7 7 7 7 7 7 7 8 7 7 9 8 8 7 6 5 2 3 3 5 6 5 4 5 6 7 6 5 5 5 5 5 5 6 6 6 6 6 6 6 7 6 6 6 6 9 7 8 8 9 8 8 8 7 8 8 7 8 8 5 4 2 4 1 2 3 3 3 7 5 3 2 3 5
9 9 8 8 8 7 7 7 8 7 5 6 7 6 6 6 7 8 8 7 7 9 8 9 9 7 7 8 7 5 4 5 5 5 4 4 7 6 5 4 4 4 5 6 6 6 5 5 5 7 6 6 5 5 4 5 6 6 9 9 8 10 8 8 8 7 7 6 7 7 7 5 5 5 3 2 1 2 4 7 6 7 7 6 5
8 8 8 8 7 7 7 8 7 7 5 6 6 6 5 6 7 8 8 7 7 7 9 9 8 9 8 9 9 9 9 7 7 8 7 6 6 7 7 5 4 4 6 6 3 5 7 5 5 7 7 3 4 8 5 6 7 8 8 8 9 10 8 8 9 9 6 7 8 7 8 9 9 8 7 5 5 4 3 3 4 6 7 5 6
7 7 7 7 7 7 7 7 7 7 6 6 5 5 6 5 7 8 7 8 8 9 8 9 7 7 8 9 10 9 9 8 9 8 7 8 7 6 5 6 6 5 5 6 5 4 6 4 3 4 5 5 5 5 6 6 7 7 6 7 8 9 9 8 8 10 9 7 7 7 7 8 7 8 7 7 7 6 7 6 5 3 2 2 3
7 7 7 6 6 6 7 7 7 7 6 7 7 6 6 7 8 8 9 9 8 9 9 9 8 7 7 8 8 8 9 10 10 9 8 7 6 6 6 5 6 6 5 6 4 2 2 4 4 4 3 2 4 5 8 8 8 9 5 6 7 9 9 9 8 9 10 8 7 7 7 7 7 6 6 7 6 5 6 5 3 5 4 4 2
7 7 7 7 6 6 6 6 7 6 7 6 7 6 6 6 6 7 7 7 7 8 9 9 9 8 8 7 6 7 6 6 7 8 9 9 8 8 8 7 6 6 6 7 6 5 2 4 5 4 3 5 6 6 7 6 8 9 5 5 8 8 7 9 9 9 9 9 7 7 7 7 7 6 6 6 6 6 6 8 5 3 4 3 1
8 7 7 7 6 7 6 6 6 6 6 6 6 6 5 6 6 7 8 7 8 8 7 8 8 9 9 7 7 7 6 6 6 6 7 9 10 9 7 7 8 8 7 6 7 6 4 3 4 4 5 6 7 7 7 5 6 9 6 7 7 6 7 8 9 9 8 9 8 8 7 7 7 8 7 7 6 8 8 8 8 7 4 2 4
8 8 8 7 7 6 6 6 6 5 6 5 6 5 5 6 6 6 8 8 8 7 6 6 7 7 9 9 9 9 8 7 6 7 8 8 9 11 10 8 7 8 7 7 7 7 6 9 6 4 4 5 5 6 6 4 4 8 4 4 7 5 6 9 9 8 8 10 9 7 7 8 7 8 7 7 7 7 7 6 7 7 8 7 4
7 7 7 7 7 6 7 7 6 5 5 5 5 6 6 5 5 6 7 7 8 8 7 7 7 8 8 10 9 9 9 9 9 10 10 11 10 9 9 10 9 7 7 6 7 7 5 6 7 6 5 5 8 9 8 6 6 6 4 4 7 6 7 7 8 8 8 8 8 9 8 7 7 7 8 7 7 6 6 6 6 8 7 8 7
8 8 8 7 7 7 7 7 7 6 6 6 7 5 4 3 7 10 9 9 7 6 5 6 7 7 7 9 9 9 8 8 8 9 10 10 10 10 11 11 11 9 8 8 7 8 6 7 7 7 6 7 7 7 6 7 8 6 6 7 8 6 6 4 5 6 8 7 7 8 7 7 7 6 7 7 7 7 6 7 6 6 4 7 7
7 7 7 7 7 6 7 7 7 7 6 6 6 5 6 5 2 6 9 8 7 6 4 5 5 5 6 8 9 10 9 9 8 9 9 10 11 11 12 12 12 13 11 9 8 8 7 6 8 8 7 7 7 7 6 6 8 8 7 6 7 5 5 6 6 6 6 5 8 9 8 8 7 7 7 7 6 6 7 6 6 8 10 7 7
7 7 7 7 7 7 7 7 8 7 7 6 6 6 6 5 10 9 6 7 7 8 8 7 6 7 7 7 8 9 10 11 10 9 9 11 12 12 12 12 13 12 13 13 10 9 9 9 8 8 9 8 8 8 7 9 9 8 7 7 6 4 5 6 6 6 8 9 10 9 9 8 6 7 7 6 6 6 7 7 7 7 7 6 6
7 6 6 7 8 7 7 7 7 7 7 6 6 7 7 6 7 8 7 7 6 6 7 7 7 7 8 8 9 8 10 9 10 9 10 11 10 12 12 11 12 12 13 13 11 10 9 8 10 9 10 9 9 9 8 8 9 9 5 4 5 6 7 7 5 6 8 10 11 10 9 8 7 7 6 6 7 9 8 7 7 6 6 6 7
8 7 7 7 7 8 7 7 7 6 7 8 8 8 9 8 7 9 9 8 7 9 9 8 7 8 9 8 8 8 7 9 10 9 10 11 11 11 12 12 11 12 13 14 12 10 9 11 11 11 11 10 8 8 8 7 7 7 7 5 6 8 7 8 7 7 7 7 9 9 10 9 9 8 7 7 8 8 9 9 6 7 7 6 7
9 9 8 7 8 8 7 8 8 8 7 8 7 8 9 9 9 7 8 8 9 8 9 8 8 8 9 8 8 8 9 9 10 9 11 11 10 11 13 12 12 12 12 13 14 15 15 14 14 13 11 10 9 8 6 5 3 6 6 5 7 6 7 5 6 7 7 9 11 9 8 8 6 7 8 8 7 9 9 8 8 6 8 7 8
9 9 8 8 8 7 8 8 8 8 8 8 8 8 8 7 8 8 9 10 9 9 9 10 10 9 9 9 10 9 9 10 11 9 11 10 11 11 12 12 13 12 14 12 13 14 14 14 15 14 11 9 8 6 5 4 5 6 8 6 3 4 7 8 6 6 6 8 10 8 5 2 4 8 7 7 7 7 7 6 6 8 7 8 7
10 10 9 9 9 9 9 9 9 8 9 8 9 9 8 8 8 8 8 9 9 9 10 10 10 10 9 10 10 10 10 11 10 9 11 11 11 11 11 13 13 13 13 13 13 13 13 14 14 16 10 8 7 7 8 5 3 3 3 3 4 3 4 5 6 5 7 9 9 10 6 5 6 7 6 8 7 7 5 5 7 8 7 7 7
10 10 10 10 9 9 9 9 8 8 9 9 9 9 9 9 9 8 9 8 9 8 9 10 10 11 11 12 11 10 10 10 10 10 11 11 11 12 12 12 13 14 13 13 14 14 12 14 15 17 12 12 11 13 14 13 8 4 3 4 6 7 7 6 6 5 4 6 4 9 8 7 7 8 7 7 6 7 5 5 5 8 10 9 7
11 10 9 9 10 10 10 10 9 9 9 8 9 9 10 9 9 10 9 9 9 9 10 11 10 11 11 11 11 11 11 10 10 11 10 11 11 11 13 13 13 13 13 14 14 15 13 12 14 15 18 16 15 13 13 15 15 13 8 5 4 4 5 4 4 6 5 3 5 8 7 7 9 8 7 7 6 4 5 4 8 8 9 7 7
10 10 11 11 10 10 10 9 9 8 8 9 9 9 10 10 10 10 10 9 7 9 10 10 10 11 11 12 12 12 12 12 11 11 11 12 12 12 12 12 13 14 14 15 15 15 14 13 13 13 12 12 13 15 15 14 14 12 11 10 7 6 6 6 6 6 4 4 4 6 9 7 8 8 7 7 6 7 5 9 7 9 10 9 8
11 11 10 10 10 10 10 9 8 7 8 9 8 9 9 9 10 10 9 9 9 10 10 11 11 11 11 11 10 10 10 12 13 12 12 13 12 12 12 12 12 12 12 14 14 14 15 16 15 14 12 12 14 13 12 13 13 14 11 10 9 9 7 5 5 5 5 5 4 7 9 10 9 9 8 6 5 6 4 5 6 8 10 10 8
11 11 11 10 10 10 10 9 9 10 11 9 8 9 9 10 10 9 10 9 10 10 10 10 11 10 9 10 11 10 11 11 12 13 13 12 12 12 11 12 13 12 11 12 14 14 15 15 16 16 14 10 10 9 20 22 16 12 11 10 9 8 8 7 5 4 4 3 3 5 9 19 16 8 9 11 8 11 10 7 7 8 10 9 9
13 11 11 10 10 10 9 10 9 10 9 9 8 6 6 10 9 9 9 9 10 9 9 9 10 9 9 10 10 11 11 13 12 12 12 13 13 12 11 12 11 11 10 10 11 14 15 14 14 14 15 12 10 13 25 21 21 21 13 10 9 8 7 7 5 3 4 4 4 2 4 7 12 11 8 9 10 13 12 14 12 12 12 10 10
11 10 10 10 10 9 9 9 9 9 9 8 7 9 10 9 8 7 6 8 9 9 9 9 9 9 10 11 10 11 12 13 12 13 14 12 12 12 12 12 11 12 11 7 10 11 12 13 11 14 13 14 12 24 27 24 22 21 18 11 8 6 7 6 6 4 3 2 2 3 2 3 5 8 4 6 6 9 13 13 12 9 7 6 8
10 10 10 9 8 8 8 7 8 8 8 9 9 9 9 9 9 10 9 10 9 9 9 10 11 11 12 11 11 11 12 12 13 13 12 13 14 14 13 12 13 11 11 11 8 9 11 12 13 14 13 13 12 25 27 27 24 23 23 17 7 7 6 7 6 6 5 2 1 3 4 3 6 8 3 2 2 4 3 9 12 14 14 13 7
9 8 8 8 7 7 7 7 8 8 7 7 7 8 8 8 9 9 9 9 9 10 10 11 11 11 12 12 12 12 11 10 10 10 11 12 13 13 12 11 10 12 11 11 10 9 8 10 11 11 11 12 11 24 26 27 26 25 23 18 9 9 7 6 6 6 5 2 2 4 4 4 2 3 4 4 3 4 6 6 5 4 4 5 6
9 9 9 10 9 7 7 7 7 7 7 7 8 7 7 8 8 8 8 9 10 10 10 10 11 12 12 12 12 12 12 12 12 11 9 10 10 10 11 10 10 11 12 12 12 10 10 9 8 9 9 11 10 25 26 28 27 26 25 15 9 9 8 8 7 7 4 1 5 5 0 2 2 2 3 3 3 2 1 2 3 6 5 1 1
6 10 9 10 9 7 7 7 6 7 8 8 8 7 8 8 8 9 8 9 9 10 10 9 10 11 12 12 12 12 12 12 12 12 12 11 9 9 8 8 8 9 10 11 12 11 11 12 10 9 8 10 11 23 26 26 28 28 26 11 8 9 9 9 10 11 8 7 8 7 3 2 2 5 7 7 6 9 9 8 6 3 4 5 4
8 8 10 9 7 7 7 7 7 7 8 8 7 7 8 8 9 8 8 9 9 10 10 10 10 11 11 12 12 12 12 12 13 13 13 12 11 10 8 7 8 9 10 11 11 11 11 12 13 9 10 12 12 20 25 26 26 29 23 12 11 9 10 10 10 10 5 6 7 9 8 7 3 3 3 11 14 10 8 7 7 7 4 5 3
7 9 8 6 6 7 7 7 8 8 7 7 7 8 8 8 8 8 9 9 9 10 9 9 9 10 11 11 12 12 12 12 12 13 13 12 12 11 11 9 8 9 10 10 10 10 11 11 14 13 12 12 13 18 24 24 26 26 23 13 12 12 12 10 10 11 9 7 9 16 15 9 8 8 6 13 12 7 1 3 3 8 7 6 4
9 9 8 7 6 7 8 8 8 8 8 7 8 8 8 8 8 8 9 9 9 9 9 9 9 10 10 10 10 10 10 11 12 12 12 12 12 11 11 11 10 8 8 8 8 9 9 10 11 13 18 15 13 16 22 24 25 25 22 11 13 9 10 11 10 11 10 10 10 12 18 15 11 10 12 5 3 5 7 5 5 7 7 6 6
8 7 6 7 8 8 8 9 9 8 8 9 8 8 8 8 9 8 8 9 9 8 9 9 8 8 9 10 9 10 10 11 12 11 11 11 10 10 12 12 10 10 8 8 9 9 10 9 9 11 12 13 13 14 18 22 23 24 25 17 12 11 14 12 11 10 9 10 11 11 12 20 20 16 16 11 7 6 3 5 5 5 6 5 6
8 7 8 7 7 8 8 8 8 8 9 8 8 7 7 8 8 7 8 7 7 7 8 8 8 9 10 10 10 9 10 10 10 10 9 9 9 10 11 11 11 10 10 9 10 9 8 8 8 9 10 11 11 13 14 22 21 23 24 20 10 14 11 10 8 9 9 10 10 10 9 17 20 16 15 16 14 9 4 2 4 6 4 10 9
6 7 8 7 7 8 8 8 8 9 9 8 8 7 8 8 7 8 8 7 8 8 7 8 8 8 9 9 8 8 7 7 9 9 9 9 9 10 12 11 10 10 11 11 11 8 8 8 8 8 8 9 11 15 14 17 21 21 21 23 13 12 13 9 11 10 10 10 11 10 10 14 18 20 15 17 18 17 17 6 5 11 17 16 8
7 7 9 8 8 8 8 8 7 7 7 8 7 7 7 7 8 8 7 7 7 8 8 7 7 9 8 8 7 8 8 7 8 8 8 8 8 10 10 10 11 11 11 11 11 10 8 9 8 7 7 8 9 10 15 16 20 21 21 20 20 16 17 12 11 11 12 10 9 9 9 18 19 20 19 18 18 19 14 14 11 12 15 15 11
8 8 9 10 9 8 7 8 7 7 7 7 7 7 6 7 8 7 6 6 7 8 7 7 6 8 6 9 8 7 7 6 7 7 8 8 7 7 8 9 9 10 10 10 10 10 9 10 10 8 8 8 8 9 11 16 16 20 18 20 19 19 18 12 11 10 10 10 12 9 11 19 19 20 19 17 20 18 14 19 19 16 11 9 6
8 9 9 9 9 8 8 8 7 7 6 6 6 6 6 7 6 5 7 7 7 6 6 9 9 8 7 8 6 5 4 5 5 6 7 8 9 9 8 8 8 9 9 10 10 10 10 9 10 11 10 9 9 8 9 12 16 17 18 18 18 19 18 16 11 10 10 10 13 17 18 18 19 19 19 17 16 19 21 19 20 18 14 10 9
9 9 9 9 9 8 8 8 8 7 6 5 5 5 6 5 6 5 6 7 6 6 8 8 7 6 7 8 7 6 5 4 4 5 6 7 8 7 7 7 7 8 8 9 9 10 10 9 8 10 10 10 10 9 10 10 11 13 13 16 16 16 17 16 14 10 14 15 16 16 18 17 16 16 14 12 11 13 18 19 19 17 12 11 10
10 8 8 8 8 8 8 7 7 6 5 5 5 5 4 4 6 6 6 6 5 6 6 5 6 6 5 6 6 5 5 4 4 5 5 5 6 5 5 7 6 7 7 8 9 9 9 9 8 9 9 10 10 10 10 9 10 10 9 9 10 11 14 14 11 9 10 9 12 12 11 13 13 16 16 13 13 16 16 14 12 12 11 10 11
8 8 8 8 8 8 7 7 6 6 6 5 5 5 5 5 7 8 8 7 6 5 4 6 7 7 7 7 6 7 6 5 4 5 4 4 5 5 5 5 5 6 6 7 8 8 9 10 9 8 8 9 9 8 8 9 9 9 9 7 7 7 9 8 10 9 8 8 8 10 12 11 11 12 12 11 11 11 12 12 11 10 10 10 12
8 8 9 8 8 7 7 7 6 5 5 5 5 5 4 3 7 6 5 6 5 7 6 6 5 6 7 7 6 6 7 6 6 5 4 5 3 5 4 5 5 3 3 4 6 6 7 8 7 7 8 7 8 8 8 8 8 8 7 7 7 7 6 7 9 12 9 10 10 12 11 11 11 10 10 10 10 10 10 11 12 11 10 10 10
8 8 8 8 7 7 6 6 5 5 6 6 5 4 4 4 7 6 6 4 4 5 5 6 6 5 5 5 5 6 7 6 7 6 4 2 5 5 4 3 3 2 1 4 4 5 4 5 7 6 4 5 7 6 10 12 12 12 13 12 10 11 8 8 10 11 8 8 9 8 9 9 9 9 9 9 9 9 9 10 10 10 10 10 10
9 8 8 7 7 7 6 6 5 5 6 6 5 4 3 6 5 5 7 5 4 3 4 5 6 6 4 5 4 5 6 6 6 6 7 3 5 2 7 8 6 3 2 1 3 2 4 5 5 7 5 2 8 11 11 13 13 12 12 12 13 12 11 10 9 6 8 8 8 8 8 8 8 8 9 9 8 8 8 7 7 7 8 8 8
Wind_Direction
59 52 41 42 47 49 45 38 46 46 50 56 68 61 56 34 28 33 13 50 65 27 34 23 298 289 281 266 227 204 238 265 234 217 220 212 198 171 162 162 207 240 264 241 188 190 209 224 227 217 214 210 213 219 217 218 206 197 195 194 197 207 207 200 208 144 143 150 90 151 100 207 247 234 258 259 240 238 69 57 65 86 71 62 5
53 48 44 43 40 39 42 43 41 45 37 29 25 31 24 29 23 21 10 13 59 63 149 248 276 264 297 303 343 313 307 328 345 1 345 320 274 234 197 178 184 190 204 217 209 198 200 211 217 214 205 212 213 214 215 221 212 204 195 206 198 199 213 178 177 137 182 195 168 137 218 267 260 269 276 279 273 92 82 74 82 65 58 71 91
61 55 51 44 42 41 39 36 33 30 34 33 23 29 32 21 15 3 352 354 13 61 74 22 285 300 302 304 320 336 324 285 280 281 275 262 266 235 217 213 199 197 197 200 213 221 221 220 224 218 211 208 213 218 212 211 214 210 202 206 198 202 219 188 183 189 185 178 132 104 187 204 254 264 218 238 253 241 112 112 105 99 112 163 179
63 55 52 46 44 42 41 39 33 30 27 23 21 17 18 21 3 348 346 343 348 21 32 352 301 277 245 308 324 287 283 273 270 237 242 255 264 248 235 209 225 219 213 208 212 226 227 227 226 222 220 215 216 217 216 218 207 213 212 219 199 203 207 212 194 196 194 152 201 193 184 188 191 211 209 216 203 208 183 180 140 150 146 164 159
73 65 56 49 44 40 38 35 33 35 30 26 21 18 6 8 358 350 317 325 343 357 0 324 316 327 4 299 267 271 272 267 274 274 240 253 279 281 268 271 265 222 215 220 225 224 230 230 225 226 225 228 237 235 221 216 212 209 204 207 203 204 205 204 199 192 206 210 151 131 197 211 214 166 167 198 176 196 214 166 155 147 164 175 172
73 70 65 57 52 45 38 33 33 31 31 23 17 13 14 11 2 352 354 3 6 17 4 351 310 313 311 312 316 309 285 239 241 282 286 270 283 320 310 269 258 272 223 205 230 232 234 239 235 233 235 220 214 230 229 221 217 212 204 203 212 212 210 192 201 199 199 203 219 208 291 174 169 170 135 186 144 210 213 182 160 164 156 175 179
75 68 62 60 55 54 45 36 29 29 24 15 15 9 9 11 5 1 357 357 357 360 354 350 351 343 328 307 305 304 305 304 334 323 311 297 280 276 279 284 269 259 269 265 241 244 246 247 243 237 242 237 206 215 235 240 222 214 207 206 210 206 211 215 202 196 183 224 244 242 246 298 62 142 181 98 186 252 230 163 172 168 184 198 186
70 68 66 62 60 56 54 45 40 32 20 21 15 15 11 10 8 3 360 356 1 351 345 345 345 345 338 318 301 297 308 305 317 313 311 302 295 289 278 264 259 270 280 285 269 248 241 249 256 251 245 251 229 210 224 237 252 242 219 217 206 205 210 213 208 190 189 198 207 225 222 257 353 334 250 154 135 162 204 201 208 186 195 210 223
74 72 68 64 63 61 57 54 50 42 32 24 19 14 13 5 0 1 5 1 360 348 350 345 343 336 340 342 310 305 288 281 287 288 296 302 296 292 289 307 320 316 294 278 273 264 256 240 246 251 245 246 246 242 215 214 234 229 237 222 217 209 214 213 202 201 194 199 180 212 204 202 185 238 261 126 138 145 183 186 193 155 186 212 215
76 78 76 73 65 66 61 57 50 44 35 30 24 19 12 3 357 358 13 1 356 351 353 350 347 348 352 351 347 321 301 300 293 298 294 295 290 289 295 301 302 301 294 280 280 278 268 278 252 248 262 270 286 270 246 238 237 234 234 228 216 221 216 212 209 203 200 194 184 175 188 184 212 209 209 147 129 164 177 191 188 174 195 209 194
86 83 79 72 67 59 56 53 48 40 33 31 31 15 1 8 2 355 11 356 349 357 349 356 356 357 353 350 343 345 343 330 320 316 317 313 306 311 311 312 317 292 288 286 268 293 286 265 284 285 272 282 292 282 289 259 241 225 212 214 219 215 211 205 211 216 193 198 194 186 192 190 192 190 191 184 172 159 171 210 176 189 193 176 198
94 82 74 68 61 54 47 50 43 39 31 29 33 17 6 9 359 356 5 0 356 351 359 357 1 354 352 352 349 350 346 341 333 322 318 313 315 314 311 311 302 296 295 291 271 255 276 287 276 279 297 323 300 315 292 287 281 260 230 209 214 214 212 204 205 210 202 198 203 196 203 200 198 198 193 182 185 185 179 187 185 150 185 212 150
93 83 74 66 60 54 47 41 43 36 30 24 25 14 13 13 5 357 7 3 357 352 355 359 357 353 352 348 352 347 353 350 341 332 334 327 329 322 315 300 292 283 278 280 276 253 279 290 297 291 308 232 264 262 260 252 260 261 237 222 212 219 208 203 201 202 198 197 199 195 191 195 200 199 188 187 187 177 176 164 175 164 175 179 195
85 80 75 67 61 59 53 43 39 39 29 31 28 20 16 18 1 7 5 359 6 1 355 356 353 347 347 352 350 349 350 341 332 331 332 334 334 327 323 316 309 305 302 296 295 297 298 287 287 293 295 291 272 265 264 261 264 262 250 247 230 223 218 208 204 200 206 200 187 184 192 193 201 204 194 175 177 170 178 183 156 165 173 172 119
80 74 70 65 63 59 55 50 42 36 33 35 30 26 26 23 13 14 7 13 12 9 2 357 355 347 347 352 354 350 343 330 330 337 338 334 327 319 314 315 316 314 313 313 304 300 281 272 261 264 273 279 283 277 272 246 263 262 242 242 239 226 215 208 214 199 198 196 191 188 188 194 196 195 189 194 185 188 180 176 161 161 171 167 175
89 80 73 64 60 58 60 62 51 42 41 37 36 34 22 21 12 24 19 11 12 5 7 3 359 347 352 356 353 344 336 338 339 343 341 337 329 324 320 315 311 307 308 310 304 302 323 305 285 264 251 248 258 274 269 280 291 268 270 287 288 277 237 213 209 198 200 195 197 189 190 204 197 191 190 194 197 188 183 175 174 173 170 187 175
85 82 75 72 64 64 63 57 54 46 45 38 36 33 28 20 352 1 45 23 9 6 18 11 3 2 356 353 348 343 346 348 350 350 344 335 326 318 312 312 308 312 306 299 294 293 286 277 286 285 283 271 270 270 269 260 260 268 259 258 247 240 255 237 234 217 202 196 200 195 199 203 200 187 190 192 192 181 184 187 179 184 180 174 176
83 82 82 78 71 62 59 60 55 49 42 43 36 32 26 355 21 10 24 20 17 358 17 28 10 4 356 352 348 347 343 347 350 351 343 331 328 331 331 327 324 324 323 315 310 301 301 298 285 283 281 284 276 278 282 283 275 267 236 236 248 235 241 276 275 249 211 200 197 196 203 209 201 197 196 193 183 181 181 196 190 175 210 201 178
91 84 77 71 71 65 53 60 55 49 52 40 44 34 23 22 304 84 25 15 5 349 17 51 25 11 4 1 356 350 350 351 353 348 342 340 342 340 335 330 327 329 322 323 320 317 316 303 293 290 293 290 281 267 270 286 281 258 245 242 245 246 224 227 226 248 264 243 204 198 206 210 198 199 199 197 183 176 190 193 195 170 202 212 177
88 84 81 80 77 73 64 55 53 52 48 43 44 37 34 19 17 35 33 25 4 358 10 23 27 28 14 9 2 359 359 355 352 350 349 352 346 340 335 331 329 326 326 323 325 325 320 314 303 299 295 287 277 269 246 244 241 240 232 225 224 221 227 227 227 215 222 226 229 203 204 207 204 198 196 193 192 191 189 197 197 181 174 183 167
97 91 86 81 71 71 72 62 58 52 48 46 37 37 32 33 41 33 32 22 11 10 13 27 17 18 23 15 12 8 2 359 354 355 356 353 350 345 340 334 333 332 327 321 325 324 323 318 310 301 296 291 283 280 261 243 241 236 231 224 236 257 257 255 233 231 233 237 221 209 200 208 205 206 197 194 197 200 193 195 188 177 174 172 168
105 101 93 86 80 77 77 72 64 53 47 51 44 38 32 27 29 33 27 19 20 13 18 16 20 14 21 15 15 17 1 7 0 0 358 355 353 350 345 341 337 335 334 327 331 337 335 329 318 306 296 293 290 289 270 247 244 235 222 216 229 229 229 225 228 239 238 250 247 212 204 198 201 206 203 200 196 199 190 192 186 176 181 174 180
99 95 93 83 80 76 69 70 69 60 50 47 50 47 37 25 27 33 28 27 27 17 16 20 17 16 11 17 15 13 7 15 11 3 2 359 353 0 351 346 346 346 343 346 352 350 346 336 323 307 291 287 288 286 276 257 230 277 270 214 219 243 259 252 244 247 249 245 241 232 219 192 181 206 207 210 201 198 195 187 187 180 188 176 197
100 91 83 81 74 67 63 57 59 58 50 48 44 47 49 34 21 25 34 25 24 20 21 23 17 12 8 15 21 11 10 20 14 9 2 3 359 4 355 351 353 353 351 353 351 350 346 339 328 316 303 293 288 293 301 288 266 252 256 272 306 224 245 256 270 269 261 270 275 263 232 172 202 212 207 215 217 207 205 153 166 180 193 174 195
95 88 83 78 69 65 60 56 50 48 52 45 43 41 42 39 26 20 36 39 22 22 25 24 17 10 12 16 17 9 18 20 16 11 2 7 10 6 4 357 355 357 357 353 350 348 347 346 338 331 327 330 335 322 308 303 279 286 327 301 246 251 258 244 232 231 249 253 238 234 232 203 214 213 210 212 207 217 187 167 179 162 194 193 190
99 90 83 73 68 64 61 57 50 49 48 44 42 40 38 38 32 19 24 37 28 21 24 27 21 14 14 14 15 11 15 19 13 16 12 7 11 13 9 3 0 359 359 358 354 352 351 348 347 338 352 355 360 7 7 350 330 296 294 293 304 287 280 268 267 273 263 266 247 228 218 201 215 220 214 214 211 214 200 171 118 132 186 203 185
93 90 83 78 69 64 60 55 52 47 46 45 41 38 36 34 33 29 26 31 30 22 26 27 22 20 17 15 12 11 12 12 16 20 13 12 13 14 14 11 5 0 1 2 356 354 353 347 351 5 25 24 27 24 18 8 351 348 340 305 283 267 265 278 276 266 269 267 263 248 246 210 208 212 211 211 214 204 204 90 143 163 179 190 186
90 81 77 72 68 62 57 54 53 56 52 49 42 39 37 32 29 30 28 29 31 25 28 26 26 25 18 17 16 10 10 12 10 15 18 14 13 13 14 16 11 8 4 3 359 357 355 355 360 6 21 20 18 21 16 5 358 349 343 341 325 302 279 269 261 266 270 271 279 272 266 240 217 210 207 202 203 218 172 163 173 155 164 183 189
88 81 73 70 67 60 54 46 37 34 64 59 45 40 39 34 33 29 24 26 34 32 27 28 29 24 20 17 17 14 13 13 12 12 15 15 13 14 12 15 19 14 8 4 1 2 1 2 359 2 14 29 26 17 13 1 352 347 341 332 328 324 314 289 277 272 253 247 247 266 266 260 230 213 210 213 195 196 158 161 161 160 171 177 171
92 81 74 67 61 59 54 47 36 35 39 45 52 49 46 44 35 28 25 24 33 36 28 28 31 26 21 24 20 17 18 18 15 14 15 14 14 15 12 11 17 18 14 6 5 4 7 4 3 5 3 28 26 19 2 359 359 349 333 332 328 329 326 310 290 281 290 279 243 236 244 255 251 213 201 207 201 201 196 190 175 174 170 178 173
83 83 76 68 60 55 53 47 36 29 41 39 31 26 76 58 42 33 31 35 36 34 35 30 28 23 25 27 27 21 19 21 17 15 13 14 13 14 12 10 15 18 18 13 9 11 8 4 5 4 4 12 20 6 359 359 354 352 347 331 323 315 311 307 294 293 289 290 309 270 265 268 263 239 213 176 182 185 174 178 173 171 178 176 177
81 72 70 65 61 58 50 50 41 33 28 31 38 20 44 53 42 20 37 48 49 35 31 29 24 27 27 28 32 23 24 23 20 18 14 12 12 15 15 8 9 12 13 19 18 17 10 4 4 4 6 5 12 2 359 357 355 350 345 329 302 301 309 308 303 281 265 278 296 311 273 173 248 271 261 176 178 178 173 173 178 173 192 215 200
77 75 69 63 64 57 54 49 48 37 34 34 28 23 36 31 38 21 21 34 39 33 31 26 24 25 28 21 17 26 32 28 24 21 15 16 13 15 11 7 9 7 7 14 25 16 21 13 6 3 359 1 10 2 358 356 354 351 345 337 300 295 301 305 312 312 302 276 109 286 301 238 231 219 222 317 182 129 137 159 177 181 175 195 171
80 80 89 90 66 60 55 48 50 47 37 34 35 37 31 35 37 35 24 32 30 39 32 27 27 26 27 20 23 16 14 33 33 27 25 22 18 16 12 6 5 5 7 8 13 22 24 22 12 5 1 359 9 1 359 357 355 351 345 336 309 317 303 302 301 297 287 24 354 291 282 296 231 147 197 207 231 190 155 148 153 150 170 196 120
152 156 127 90 80 66 58 47 49 49 40 40 41 39 41 43 36 39 33 27 33 33 34 32 29 27 28 20 18 13 14 19 20 25 28 34 27 21 17 12 9 6 7 4 3 13 17 18 17 11 5 4 9 6 3 359 357 352 345 335 326 326 324 323 319 311 326 192 259 264 296 306 342 133 159 258 196 232 145 127 161 168 168 183 51
68 56 81 77 70 62 61 55 48 54 49 40 47 42 42 42 37 38 37 32 33 29 31 33 33 34 32 24 20 17 14 15 18 18 20 22 30 23 21 18 20 18 15 8 1 6 10 12 17 14 6 7 7 9 6 3 359 355 347 340 334 332 336 340 349 348 10 25 16 5 345 148 187 217 207 123 209 199 188 188 184 177 107 96 57
89 75 71 78 77 67 62 65 62 59 55 45 41 48 48 43 39 36 33 33 38 32 24 23 37 37 35 27 23 19 14 12 21 21 17 13 16 17 15 20 25 28 23 18 6 6 6 9 12 18 11 9 8 10 6 4 3 0 356 345 339 336 344 355 0 350 15 57 32 11 358 346 311 256 177 174 203 196 186 191 191 165 137 124 104
112 100 91 86 92 86 68 62 65 63 63 61 42 38 47 46 45 40 35 35 34 35 26 27 32 37 40 33 22 21 19 14 19 23 20 17 14 16 9 0 17 30 30 25 13 9 9 11 13 13 15 13 7 10 7 4 4 4 3 350 355 355 352 358 358 2 23 36 34 32 22 358 345 341 339 199 217 197 324 315 185 141 147 137 134
101 105 109 95 78 74 81 75 66 61 56 62 64 48 43 44 42 40 38 36 30 30 31 20 37 41 38 41 30 20 19 17 21 23 23 22 15 11 11 4 4 17 31 30 22 13 13 15 19 14 12 13 12 8 7 6 7 7 7 357 3 352 354 359 6 1 14 19 10 10 15 9 351 342 359 36 16 248 195 192 184 159 150 152 153
124 116 125 125 112 96 79 69 68 67 62 51 51 54 46 43 42 34 33 38 27 25 34 23 28 38 44 41 30 26 23 22 20 20 28 27 18 15 11 7 7 6 18 32 25 20 14 15 19 20 19 16 13 10 8 7 9 11 10 10 7 7 6 6 11 5 3 11 7 3 3 3 349 2 9 15 56 26 204 206 200 189 158 141 138
130 141 132 98 83 77 72 70 69 68 63 55 51 45 42 47 49 31 32 43 33 26 40 28 32 36 37 33 39 34 23 25 22 23 24 22 21 25 13 10 6 5 10 21 24 18 16 16 20 22 22 15 14 9 4 7 8 10 12 13 6 12 360 4 6 11 12 11 7 3 2 357 353 357 24 19 19 25 13 211 174 216 163 133 139
93 104 94 93 98 89 82 75 65 62 64 61 53 51 41 43 44 39 28 31 34 32 26 32 28 38 53 41 38 47 28 26 24 21 22 23 25 26 21 9 8 6 6 15 14 8 14 16 22 17 20 12 5 8 7 4 6 8 11 14 15 12 5 5 12 21 16 18 10 2 4 359 4 359 13 39 27 24 24 10 124 127 127 131 129
140 120 119 112 96 83 70 67 63 62 67 64 55 43 48 42 41 42 40 25 34 36 26 20 31 35 56 46 36 44 38 22 24 16 24 24 27 29 21 10 12 6 9 11 13 1 7 14 15 19 16 16 9 3 8 7 4 4 9 11 13 14 7 15 18 19 18 13 7 5 360 12 16 9 6 26 38 32 30 27 25 120 122 116 120
103 93 92 91 91 88 84 77 68 59 58 66 50 41 37 51 38 34 34 33 37 45 11 360 35 40 41 51 31 34 53 36 22 9 16 24 31 38 23 16 13 11 11 11 11 2 358 16 7 14 14 15 14 6 2 7 5 2 4 10 9 10 13 11 17 20 12 7 10 6 12 17 22 18 6 15 36 37 37 39 37 24 65 91 124
107 102 97 92 88 87 85 76 71 68 55 56 65 38 24 56 54 33 37 36 29 50 27 23 23 29 35 53 32 22 61 57 34 12 12 21 18 39 27 16 13 17 17 15 12 4 1 16 14 8 7 4 8 6 357 1 359 359 360 3 9 7 10 10 15 15 14 13 13 14 17 21 25 26 15 6 25 33 30 40 41 32 29 46 45
117 109 100 99 96 87 78 73 63 59 67 61 64 49 18 38 51 27 46 55 23 28 51 32 13 29 31 35 39 22 32 70 56 23 24 27 18 33 38 18 17 16 15 19 16 11 7 10 26 10 2 1 360 357 355 355 353 352 354 359 3 7 6 9 12 9 9 15 16 16 17 17 24 26 30 22 21 26 35 32 40 45 40 41 50
102 113 117 105 99 90 84 77 71 60 52 50 66 74 28 22 61 23 34 55 45 35 58 42 15 11 33 24 42 20 9 37 62 39 40 28 25 38 46 30 23 15 16 18 21 13 9 9 15 11 1 2 2 0 357 350 351 346 342 347 4 1 4 9 11 5 6 8 15 18 20 22 24 27 29 27 21 32 36 27 29 40 45 44 50
105 100 99 99 93 85 74 69 69 63 63 54 42 50 42 19 51 44 28 17 22 42 42 59 43 10 4 17 30 18 10 3 57 64 49 26 27 29 55 49 24 19 21 22 27 20 8 8 13 14 2 1 359 357 1 351 339 338 334 338 351 1 7 8 9 1 1 7 13 16 23 21 21 23 23 24 23 27 38 35 28 30 41 47 50
98 80 75 74 73 76 78 74 67 71 74 70 63 37 22 42 61 65 66 30 12 13 22 28 60 42 358 352 23 4 8 13 30 94 75 59 23 6 56 81 53 43 16 22 41 33 13 8 15 14 1 359 359 352 346 334 318 318 326 336 344 353 356 2 4 4 8 20 22 26 19 22 22 23 22 22 19 22 27 34 31 21 28 40 44
108 106 100 94 86 81 73 73 69 71 70 64 65 56 352 40 68 23 59 67 23 34 22 18 15 47 18 354 22 13 351 7 24 15 119 107 23 55 9 65 126 197 99 19 357 58 1 359 15 15 12 4 354 328 316 326 331 338 342 345 340 334 346 355 353 8 22 29 30 29 26 21 20 25 28 27 22 22 27 27 27 26 30 34 38
123 116 105 97 96 91 83 73 71 69 75 73 61 43 14 48 56 45 33 51 53 39 41 32 0 1 22 7 14 24 339 351 30 11 348 53 149 37 30 47 78 108 114 245 341 304 337 348 0 13 11 341 340 338 342 335 339 345 337 341 341 336 341 355 354 12 25 31 24 32 25 23 23 27 30 26 26 29 29 32 32 35 37 37 40